ハウエル彗星

88P/Howell (2020)

English version
Home page
Updated on May 19, 2019

---------------------------------------------------------------------

・ プロフィール

・ 軌道要素

Epoch 2020 Sept. 28.0 TT = JDT 2459120.5
T 2020 Sept. 26.61730 TT                                MPCW
q   1.3530874            (2000.0)            P               Q
n   0.18005759     Peri.  235.91182     +0.38220836     +0.92186604
a   3.1059546      Node    56.68431     -0.82065196     +0.37039349
e   0.5643570      Incl.    4.38365     -0.42479068     +0.11389318
P   5.47
From 1184 observations 2014 Jan. 29-2019 Mar. 7, mean residual 0".5.
     Nongravitational parameters A1 = +0.47, A2 = -0.0823.

・ 星図

・ 光度変化

        m1 =  5.2 + 5 logΔ + 22.0 log r(t - 15)  [  ,15]  (              〜2020年10月11日)
        m1 =  5.2 + 5 logΔ + 20.0 log r          [15,  ]  (2020年10月11日〜              )

---------------------------------------------------------------------

軌道要素はM.P.E.C. 2019-J142に掲載されたものです。
星図はステラナビゲータ Ver.10 (アストロアーツ) で作成したものです。
光度グラフはComet for Windowsで作成したものです。

---------------------------------------------------------------------

Copyright(C) Seiichi Yoshida (comet@aerith.net). All rights reserved.